Poughkeepsie, NY

8:25 PM EDT on April 24, 2017 (GMT -0400)
Dutchess County

Weather History for KPOU - July, 2014

Change the Weather History Date:

Thursday, July 3, 2014

  Actual Average Record
Temperature  
Mean Temperature 79 °F 72 °F  
Max Temperature 89 °F 84 °F 103 °F (1966)
Min Temperature 68 °F 60 °F 43 °F (1957)
Degree Days  
Heating Degree Days 0 0  
Month to date heating degree days 0 0  
Since 1 June heating degree days 7 49  
Since 1 July heating degree days 0 0  
Cooling Degree Days 14 7  
Month to date cooling degree days 45 21  
Year to date cooling degree days 216 184  
Since 1 June cooling degree days 183 148  
Growing Degree Days 28 (Base 50)    
Moisture  
Dew Point 70 °F    
Average Humidity 84    
Maximum Humidity 94    
Minimum Humidity 59    
Precipitation  
Precipitation 1.07 in 0.13 in 1.71 in (1965)
Month to date precipitation 1.08 0.41  
Year to date precipitation 17.40 22.34  
Sea Level Pressure  
Sea Level Pressure 29.93 in    
Wind  
Wind Speed 3 mph (SSW)    
Max Wind Speed 21 mph    
Max Gust Speed 45 mph    
Visibility 6 miles    
Events Rain , Thunderstorm    
T = Trace of Precipitation, MM = Missing Value Source: NWS Daily Summary

Daily Weather History Graph

Daily Weather History Graph

Search for Another Location

Airport or City:

Trip Planner

Search our weather history database for the weather conditions in past years. The results will help you decide how hot, cold, wet, or windy it might be!

Date:

Astronomy

Jul. 03, 2014 Rise Set
Actual Time 5:26 AM EDT 8:33 PM EDT
Civil Twilight 4:52 AM EDT 9:07 PM EDT
Nautical Twilight 4:08 AM EDT 9:50 PM EDT
Astronomical Twilight 3:17 AM EDT 10:41 PM EDT
Moon 11:27 AM EDT (7/3) 11:48 PM EDT (7/3)
Length of Visible Light 16h 14m
Length of Day
15h 07m
Waxing Crescent, 33% of the Moon is Illuminated
Jul 3
Waxing Crescent
Jul 5
First Quarter
Jul 12
Full
Jul 18
Last Quarter
Jul 26
New

Hourly Weather History & Observations

Time (EDT) Temp. Heat Index Dew Point Humidity Pressure Visibility Wind Dir Wind Speed Gust Speed Precip Events Conditions
12:03 AM 72.0 °F - 70.0 °F 93% 29.92 in 10.0 mi Calm Calm - N/A   Scattered Clouds
12:24 AM 71.1 °F - 69.1 °F 93% 29.92 in 9.0 mi NE 3.5 mph - N/A   Mostly Cloudy
12:35 AM 72.0 °F - 70.0 °F 93% 29.92 in 10.0 mi Calm Calm - N/A   Mostly Cloudy
12:53 AM 72.0 °F - 70.0 °F 93% 29.91 in 10.0 mi Calm Calm - N/A   Overcast
1:53 AM 72.0 °F - 70.0 °F 93% 29.89 in 8.0 mi SE 3.5 mph - N/A   Overcast
2:35 AM 71.1 °F - 69.1 °F 93% 29.90 in 7.0 mi Calm Calm - N/A   Scattered Clouds
2:53 AM 71.1 °F - 69.1 °F 93% 29.89 in 9.0 mi Calm Calm - N/A   Partly Cloudy
3:53 AM 72.0 °F - 69.1 °F 91% 29.90 in 9.0 mi Calm Calm - N/A   Scattered Clouds
4:01 AM 72.0 °F - 70.0 °F 93% 29.91 in 9.0 mi Calm Calm - N/A   Mostly Cloudy
4:53 AM 72.0 °F - 69.1 °F 91% 29.91 in 8.0 mi Calm Calm - N/A   Overcast
5:02 AM 72.0 °F - 69.1 °F 91% 29.92 in 8.0 mi Calm Calm - N/A   Overcast
5:31 AM 72.0 °F - 70.0 °F 93% 29.92 in 7.0 mi Calm Calm - N/A   Scattered Clouds
5:53 AM 72.0 °F - 70.0 °F 93% 29.92 in 7.0 mi Calm Calm - N/A   Partly Cloudy
6:49 AM 73.4 °F - 69.8 °F 88% 29.94 in 2.5 mi Calm Calm - N/A   Scattered Clouds
6:53 AM 73.0 °F - 70.0 °F 90% 29.93 in 2.5 mi Calm Calm - N/A   Scattered Clouds
7:15 AM 73.0 °F - 70.0 °F 90% 29.94 in 2.5 mi North 3.5 mph - N/A   Mostly Cloudy
7:28 AM 73.0 °F - 71.1 °F 93% 29.95 in 2.5 mi Calm Calm - N/A   Overcast
7:53 AM 73.9 °F - 71.1 °F 91% 29.94 in 2.5 mi Calm Calm - N/A   Overcast
8:53 AM 75.9 °F - 71.1 °F 85% 29.94 in 2.5 mi Calm Calm - N/A   Haze
9:36 AM 77.0 °F - 72.0 °F 84% 29.94 in 2.5 mi Calm Calm - N/A   Haze
9:55 AM 78.1 °F - 72.0 °F 81% 29.94 in 10.0 mi Calm Calm - N/A   Mostly Cloudy
10:53 AM 79.0 °F - 72.0 °F 79% 29.95 in 10.0 mi West 3.5 mph - N/A   Overcast
11:53 AM 81.0 °F 85.2 °F 72.0 °F 74% 29.94 in 10.0 mi West 5.8 mph - N/A   Overcast
12:00 PM 82.0 °F 86.7 °F 72.0 °F 71% 29.95 in 10.0 mi Variable 3.5 mph - N/A   Mostly Cloudy
12:44 PM 84.0 °F 90.2 °F 73.0 °F 69% 29.94 in 10.0 mi SSE 4.6 mph - N/A   Scattered Clouds
12:53 PM 84.9 °F 92.1 °F 73.9 °F 69% 29.93 in 10.0 mi SW 5.8 mph - N/A   Scattered Clouds
1:41 PM 86.0 °F 93.8 °F 73.9 °F 67% 29.93 in 10.0 mi SSW 4.6 mph - N/A   Mostly Cloudy
1:51 PM 86.0 °F 93.4 °F 73.4 °F 66% 29.93 in 10.0 mi South 6.9 mph - N/A   Mostly Cloudy
1:53 PM 86.0 °F 93.8 °F 73.9 °F 67% 29.91 in 10.0 mi South 6.9 mph - N/A   Mostly Cloudy
2:29 PM 87.1 °F 93.6 °F 72.0 °F 61% 29.92 in 10.0 mi South 10.4 mph - N/A   Mostly Cloudy
3:53 PM 88.0 °F 95.6 °F 73.0 °F 61% 29.87 in 10.0 mi Variable 6.9 mph - N/A   Clear
4:53 PM 88.0 °F 94.7 °F 72.0 °F 59% 29.84 in 10.0 mi South 8.1 mph - N/A   Scattered Clouds
5:53 PM 86.0 °F 93.8 °F 73.9 °F 67% 29.84 in 10.0 mi South 10.4 mph - N/A   Mostly Cloudy
6:03 PM 86.0 °F 93.8 °F 73.9 °F 67% 29.85 in 10.0 mi SSE 6.9 mph - N/A Thunderstorm Mostly Cloudy
6:24 PM 81.0 °F 86.2 °F 73.9 °F 79% 29.87 in 2.5 mi SW 16.1 mph 25.3 mph 0.05 in Rain , Thunderstorm Thunderstorms and Rain
6:34 PM 75.9 °F - 69.1 °F 79% 29.91 in 1.0 mi SW 20.7 mph 27.6 mph 0.13 in Rain , Thunderstorm Thunderstorms and Rain
6:43 PM 75.0 °F - 64.0 °F 69% 29.89 in 0.5 mi WSW 8.1 mph 44.9 mph 0.37 in Rain , Thunderstorm Thunderstorms and Rain
6:53 PM 72.0 °F - 66.9 °F 84% 29.94 in 5.0 mi WNW 17.3 mph 23.0 mph 0.39 in Rain , Thunderstorm Thunderstorms and Rain
7:14 PM 71.1 °F - 68.0 °F 90% 29.95 in 1.0 mi NNW 5.8 mph - 0.18 in Rain , Thunderstorm Thunderstorms and Rain
7:38 PM 71.1 °F - 68.0 °F 90% 29.99 in 6.0 mi Variable 6.9 mph - 0.21 in Rain , Thunderstorm Thunderstorms and Rain
7:50 PM 69.8 °F - 68.0 °F 94% 29.99 in 0.8 mi Calm Calm - 0.43 in Rain , Thunderstorm Thunderstorms and Rain
7:53 PM 70.0 °F - 68.0 °F 93% 29.98 in 0.8 mi South 4.6 mph - 0.50 in Rain , Thunderstorm Thunderstorms and Rain
7:58 PM 70.0 °F - 66.0 °F 87% 29.98 in 1.0 mi Calm Calm - 0.03 in Rain , Thunderstorm Thunderstorms and Rain
8:02 PM 70.0 °F - 64.9 °F 84% 29.97 in 2.0 mi North 4.6 mph - 0.03 in Rain , Thunderstorm Thunderstorms and Rain
8:10 PM 70.0 °F - 66.0 °F 87% 29.97 in 3.0 mi NW 3.5 mph - 0.04 in Rain , Thunderstorm Thunderstorms and Rain
8:53 PM 69.1 °F - 66.9 °F 93% 29.97 in 3.0 mi ESE 5.8 mph - 0.06 in Rain , Thunderstorm Thunderstorms and Rain
9:38 PM 69.1 °F - 66.9 °F 93% 29.99 in 5.0 mi SE 8.1 mph - 0.07 in Rain Rain
9:53 PM 69.1 °F - 66.0 °F 90% 29.95 in 5.0 mi East 8.1 mph - 0.11 in Rain Rain
10:53 PM 69.1 °F - 66.0 °F 90% 29.93 in 10.0 mi West 3.5 mph - 0.01 in Rain Rain
11:53 PM 68.0 °F - 66.0 °F 93% 29.96 in 10.0 mi SE 3.5 mph - 0.00 in Rain Rain